Flag for Norway Weather past 2 weeks in Fagernes, Norway

Now
40 °F

Quite cool.


Feels Like: 40 °F
Forecast: 32 / 49 °F
Wind: No wind

Location: Fagernes

Current Time: May 28, 2015 at 1:11:59 AM

Latest Report: May 28, 2015 at 12:00 AM


Visibility: N/A

Pressure: 29.85 "Hg

Humidity: 69%

Dew point: 31 °F

Location of FagernesLocation

Historic Weather in Fagernes — Graph

°F

Fagernes temperature yesterday

Maximum temperature yesterday: 53 °F (at 2:00 PM)
Minimum temperature yesterday: 38 °F (at 4:00 AM)
Average temperature yesterday: 47 °F

Past Weeks' High & Low Weather Summary

 TemperatureHumidityPressure
High57 °F (May 15, 7:00 PM)90% (May 20, 12:00 AM)30.04 "Hg (May 20, 12:00 AM)
Low30 °F (May 15, 6:00 AM)18% (May 15, 7:00 PM)29.47 "Hg (May 19, 1:00 PM)
Average45 °F58%29.79 "Hg
* Reported May 12 10:00 PM — May 27 10:00 PM, Fagernes, Weather by CustomWeather, © 2015

Note: Actual official high and low records may vary slightly from our data, if they occured in-between our weather recording intervals... More about our weather records

Advertising

Fagernes weather history for previous 24 hours

 ConditionsComfort  
Time TempWeatherWind HumidityBarometerVisibility
10:00 PM
Wed, May 27
46 °FCool.No wind52%29.84 "HgN/A
9:00 PM48 °FCool.1 mph49%29.84 "HgN/A
8:00 PM50 °FPassing clouds.2 mph42%29.84 "Hg40 mi
7:00 PM52 °FCool.3 mph39%29.84 "HgN/A
6:00 PM52 °FCool.3 mph39%29.85 "HgN/A
5:00 PM52 °FCool.5 mph36%29.85 "HgN/A
4:00 PM52 °FCool.5 mph37%29.84 "HgN/A
3:00 PM52 °FCool.5 mph36%29.85 "HgN/A
2:00 PM53 °FCool.5 mph35%29.84 "HgN/A
1:00 PM51 °FCool.5 mph42%29.84 "HgN/A
12:00 PM51 °FCool.3 mph40%29.84 "HgN/A
11:00 AM50 °FCool.6 mph39%29.84 "HgN/A
10:00 AM49 °FCool.6 mph43%29.84 "HgN/A
9:00 AM48 °FCool.5 mph46%29.84 "HgN/A
8:00 AM46 °FPartly sunny.No wind63%29.85 "Hg40 mi
7:00 AM41 °FQuite cool.No wind76%29.86 "HgN/A
6:00 AM40 °FChilly.No wind77%29.86 "HgN/A
4:00 AM38 °FChilly.No wind78%29.86 "HgN/A
3:00 AM39 °FChilly.1 mph74%29.86 "HgN/A
2:00 AM38 °FOvercast.No wind75%29.86 "Hg34 mi
1:00 AM40 °FQuite cool.No wind69%29.86 "HgN/A
Weather by CustomWeather, © 2015

See weather overviewHow to use our weather pages